SVA967 OEJN-VGHS

Flight info

Callsign SVA967
Flight time N/A
Altitude 35000
Route EGREP T532 KODIS Y214 RAPMA DCT KUVSO DCT KATIT DCT MIDGU M440 TULBU N881 RASKI L639 ISLIL/N0475F370 L639 BPL A791 CEA A462 DAC
Aircraft MD11/H-SDE1E2E3FGHIJ2J3J4J5M1RWXY/LB1D1

Departure

Time N/A
Airport King Abdulaziz International Airport (OEJN)

Arrival

Time 2026-04-23 03:14
Airport Hazrat Shahjalal International Airport (VGHS)
Time Latitude Longitude Altitude Speed Heading
2026-04-23 01:38 23.27365 77.57801 34900 ft 491 kts 95°
2026-04-23 01:38 23.27207 77.61507 34898 ft 491 kts 95°
2026-04-23 01:38 23.26898 77.68919 34896 ft 492 kts 95°
2026-04-23 01:39 23.26586 77.76377 34894 ft 493 kts 95°
2026-04-23 01:39 23.26270 77.83824 34900 ft 494 kts 95°
2026-04-23 01:40 23.25948 77.91288 34897 ft 494 kts 95°
2026-04-23 01:40 23.25623 77.98757 34898 ft 495 kts 95°
2026-04-23 01:41 23.25294 78.06231 34898 ft 496 kts 95°
2026-04-23 01:41 23.24963 78.13694 34897 ft 496 kts 95°
2026-04-23 01:42 23.24624 78.21217 34894 ft 497 kts 95°
2026-04-23 01:42 23.24273 78.28651 34893 ft 497 kts 95°
2026-04-23 01:43 23.23910 78.36243 34891 ft 498 kts 95°
2026-04-23 01:43 23.23557 78.43769 34887 ft 499 kts 95°
2026-04-23 01:44 23.23206 78.51248 34890 ft 499 kts 95°
2026-04-23 01:44 23.22849 78.58792 34888 ft 500 kts 96°
2026-04-23 01:45 23.22489 78.66337 34888 ft 501 kts 96°
2026-04-23 01:45 23.22138 78.73903 34885 ft 502 kts 95°
2026-04-23 01:46 23.21967 78.81501 34884 ft 503 kts 94°
2026-04-23 01:46 23.21875 78.89112 34881 ft 503 kts 93°
2026-04-23 01:47 23.21780 78.96630 34880 ft 504 kts 94°
2026-04-23 01:47 23.21670 79.04185 34886 ft 505 kts 94°
2026-04-23 01:48 23.21571 79.10529 34886 ft 506 kts 94°
2026-04-23 01:48 23.21426 79.19492 34884 ft 507 kts 94°
2026-04-23 01:49 23.21320 79.25861 34880 ft 508 kts 94°
2026-04-23 01:49 23.21168 79.34795 34871 ft 509 kts 94°
2026-04-23 01:50 23.21055 79.41237 34880 ft 510 kts 94°
2026-04-23 01:50 23.20916 79.48946 34874 ft 511 kts 94°
2026-04-23 01:51 23.20762 79.56673 34869 ft 511 kts 95°
2026-04-23 01:51 23.20470 79.64339 34866 ft 512 kts 96°
2026-04-23 01:52 23.20122 79.72136 34874 ft 513 kts 96°
2026-04-23 01:52 23.19783 79.79893 34873 ft 514 kts 96°
2026-04-23 01:53 23.19450 79.87663 34868 ft 515 kts 96°
2026-04-23 01:53 23.19117 79.95396 34864 ft 516 kts 96°
2026-04-23 01:54 23.18777 80.03196 34872 ft 517 kts 96°
2026-04-23 01:54 23.18401 80.11006 34871 ft 518 kts 97°
2026-04-23 01:55 23.17994 80.18816 34869 ft 519 kts 97°
2026-04-23 01:55 23.17585 80.26631 34873 ft 519 kts 97°
2026-04-23 01:56 23.17176 80.34488 34873 ft 520 kts 97°
2026-04-23 01:56 23.16764 80.42340 34874 ft 521 kts 97°
2026-04-23 01:57 23.16347 80.50227 34880 ft 522 kts 97°
2026-04-23 01:57 23.15925 80.58107 34881 ft 523 kts 97°
2026-04-23 01:58 23.15499 80.65998 34883 ft 524 kts 97°
2026-04-23 01:58 23.15071 80.73842 34887 ft 525 kts 97°
2026-04-23 01:59 23.14630 80.81783 34887 ft 526 kts 97°
2026-04-23 01:59 23.14192 80.89718 34890 ft 527 kts 97°
2026-04-23 02:00 23.13757 80.97729 34891 ft 528 kts 97°
2026-04-23 02:00 23.13324 81.05642 34887 ft 529 kts 97°
2026-04-23 02:01 23.12881 81.13637 34894 ft 531 kts 98°
2026-04-23 02:01 23.12435 81.21632 34893 ft 532 kts 98°
2026-04-23 02:02 23.11982 81.29664 34890 ft 533 kts 98°
2026-04-23 02:02 23.11525 81.37700 34889 ft 534 kts 98°
2026-04-23 02:03 23.11063 81.45748 34886 ft 534 kts 98°
2026-04-23 02:03 23.10595 81.53818 34886 ft 535 kts 98°
2026-04-23 02:04 23.10123 81.61895 34880 ft 536 kts 98°
2026-04-23 02:04 23.09637 81.69969 34882 ft 537 kts 98°
2026-04-23 02:05 23.09138 81.78083 34886 ft 538 kts 98°
2026-04-23 02:05 23.08646 81.86206 34884 ft 539 kts 98°
2026-04-23 02:06 23.08156 81.94327 34887 ft 540 kts 98°
2026-04-23 02:06 23.07659 82.02481 34888 ft 541 kts 98°
2026-04-23 02:07 23.07157 82.10637 34878 ft 542 kts 98°
2026-04-23 02:07 23.06680 82.18793 34877 ft 541 kts 97°
2026-04-23 02:08 23.06310 82.26968 34878 ft 542 kts 97°
2026-04-23 02:08 23.05970 82.35151 34882 ft 543 kts 97°
2026-04-23 02:09 23.05620 82.43350 34877 ft 544 kts 97°
2026-04-23 02:09 23.05259 82.51558 34878 ft 544 kts 97°
2026-04-23 02:10 23.04892 82.59757 34881 ft 545 kts 97°
2026-04-23 02:10 23.04519 82.67999 34887 ft 546 kts 97°
2026-04-23 02:11 23.04146 82.76155 34893 ft 546 kts 97°
2026-04-23 02:11 23.03766 82.84388 34895 ft 547 kts 97°
2026-04-23 02:12 23.03382 82.92583 34903 ft 547 kts 97°
2026-04-23 02:12 23.02992 83.00834 34905 ft 547 kts 97°
2026-04-23 02:13 23.02591 83.09082 34913 ft 547 kts 98°
2026-04-23 02:13 23.02175 83.17329 34919 ft 548 kts 97°
2026-04-23 02:14 23.01765 83.25590 34918 ft 548 kts 97°
2026-04-23 02:14 23.01356 83.33854 34926 ft 548 kts 97°
2026-04-23 02:15 23.00737 83.46250 34930 ft 548 kts 97°
2026-04-23 02:16 23.00319 83.54513 34939 ft 548 kts 97°
2026-04-23 02:16 22.99896 83.62773 34935 ft 549 kts 97°
2026-04-23 02:17 22.99467 83.71043 34938 ft 548 kts 97°
2026-04-23 02:17 22.99034 83.79312 34944 ft 549 kts 97°
2026-04-23 02:18 22.98598 83.87582 34945 ft 549 kts 97°
2026-04-23 02:18 22.98156 83.95858 34955 ft 549 kts 97°
2026-04-23 02:19 22.97693 84.04130 34948 ft 550 kts 97°
2026-04-23 02:19 22.97229 84.12368 34946 ft 550 kts 98°
2026-04-23 02:20 22.96672 84.20625 34945 ft 550 kts 98°
2026-04-23 02:20 22.96064 84.28901 34948 ft 550 kts 98°
2026-04-23 02:21 22.95455 84.37183 34947 ft 551 kts 98°
2026-04-23 02:21 22.94846 84.45484 34953 ft 551 kts 98°
2026-04-23 02:22 22.94240 84.53766 34949 ft 552 kts 98°
2026-04-23 02:22 22.93638 84.61912 34950 ft 552 kts 98°
2026-04-23 02:23 22.93021 84.70204 34952 ft 552 kts 98°
2026-04-23 02:23 22.92398 84.78496 34950 ft 552 kts 98°
2026-04-23 02:24 22.91776 84.86732 34947 ft 552 kts 98°
2026-04-23 02:24 22.91145 84.95021 34946 ft 552 kts 98°
2026-04-23 02:25 22.90504 85.03343 34944 ft 552 kts 98°
2026-04-23 02:25 22.89845 85.11647 34944 ft 553 kts 99°
2026-04-23 02:26 22.89197 85.19926 34941 ft 552 kts 98°
2026-04-23 02:26 22.88558 85.28219 34937 ft 552 kts 98°
2026-04-23 02:27 22.87913 85.36518 34926 ft 552 kts 99°
2026-04-23 02:27 22.87265 85.44846 34930 ft 552 kts 98°
2026-04-23 02:28 22.86618 85.53091 34933 ft 553 kts 98°
2026-04-23 02:28 22.85961 85.61408 34921 ft 553 kts 98°
2026-04-23 02:29 22.85301 85.69705 34915 ft 553 kts 98°
2026-04-23 02:29 22.84640 85.77954 34907 ft 554 kts 98°
2026-04-23 02:30 22.83966 85.86286 34883 ft 554 kts 98°
2026-04-23 02:30 22.83290 85.94607 34852 ft 554 kts 98°
2026-04-23 02:31 22.82611 86.02912 34837 ft 554 kts 98°
2026-04-23 02:31 22.81911 86.11215 34828 ft 553 kts 99°
2026-04-23 02:32 22.81257 86.19533 34826 ft 554 kts 97°
2026-04-23 02:32 22.80790 86.27876 34830 ft 555 kts 96°
2026-04-23 02:33 22.80378 86.36126 34840 ft 555 kts 96°
2026-04-23 02:33 22.79945 86.44466 34850 ft 555 kts 96°
2026-04-23 02:34 22.79494 86.52796 34853 ft 554 kts 96°
2026-04-23 02:34 22.79039 86.61089 34849 ft 554 kts 97°
2026-04-23 02:35 22.78656 86.68017 34844 ft 554 kts 96°
2026-04-23 02:35 22.78115 86.77727 34835 ft 554 kts 96°
2026-04-23 02:36 22.77650 86.86002 34831 ft 554 kts 96°
2026-04-23 02:36 22.77171 86.94404 34823 ft 554 kts 96°
2026-04-23 02:37 22.76774 87.01318 34817 ft 553 kts 96°
2026-04-23 02:37 22.76286 87.09641 34811 ft 553 kts 97°
2026-04-23 02:38 22.75702 87.19296 34807 ft 553 kts 97°
2026-04-23 02:38 22.75288 87.26261 34807 ft 554 kts 96°
2026-04-23 02:39 22.74794 87.34589 34805 ft 553 kts 96°
2026-04-23 02:39 22.74296 87.42908 34803 ft 553 kts 96°
2026-04-23 02:40 22.73794 87.51229 34801 ft 553 kts 96°
2026-04-23 02:40 22.73287 87.59546 34804 ft 553 kts 96°
2026-04-23 02:41 22.72776 87.67858 34802 ft 553 kts 96°
2026-04-23 02:41 22.72262 87.76147 34804 ft 553 kts 96°
2026-04-23 02:42 22.71742 87.84461 34801 ft 553 kts 96°
2026-04-23 02:42 22.71218 87.92763 34804 ft 553 kts 96°
2026-04-23 02:43 22.70684 88.01011 34803 ft 552 kts 97°
2026-04-23 02:43 22.70133 88.09357 34805 ft 552 kts 97°
2026-04-23 02:44 22.69595 88.17604 34804 ft 552 kts 96°
2026-04-23 02:44 22.69055 88.25903 34804 ft 552 kts 96°
2026-04-23 02:45 22.68511 88.34192 34802 ft 552 kts 96°
2026-04-23 02:45 22.68166 88.42489 34795 ft 554 kts 88°
2026-04-23 02:45 22.68679 88.46623 34799 ft 554 kts 77°
2026-04-23 02:46 22.69829 88.50598 34800 ft 553 kts 65°
2026-04-23 02:46 22.71574 88.54281 34801 ft 549 kts 54°
2026-04-23 02:46 22.73773 88.57652 34805 ft 547 kts 49°
2026-04-23 02:47 22.78326 88.64202 34806 ft 549 kts 51°
2026-04-23 02:47 22.82542 88.71148 34807 ft 552 kts 55°
2026-04-23 02:48 22.86492 88.78292 34807 ft 553 kts 56°
2026-04-23 02:48 22.90324 88.85327 34805 ft 553 kts 56°
2026-04-23 02:49 22.94329 88.92452 34804 ft 552 kts 54°
2026-04-23 02:49 22.98522 88.99419 34805 ft 552 kts 53°
2026-04-23 02:49 23.00588 89.02809 34799 ft 534 kts 53°
2026-04-23 02:50 23.02632 89.06171 34762 ft 522 kts 52°
2026-04-23 02:50 23.04630 89.09459 34514 ft 519 kts 53°
2026-04-23 02:50 23.06614 89.12732 34218 ft 520 kts 53°
2026-04-23 02:50 23.08600 89.16014 33728 ft 520 kts 53°
2026-04-23 02:51 23.10581 89.19294 33032 ft 518 kts 53°
2026-04-23 02:51 23.12549 89.22561 32401 ft 514 kts 53°
2026-04-23 02:51 23.14493 89.25793 31795 ft 510 kts 53°
2026-04-23 02:51 23.16428 89.29012 31212 ft 507 kts 53°
2026-04-23 02:52 23.18352 89.32212 30616 ft 503 kts 53°
2026-04-23 02:52 23.20259 89.35387 30022 ft 499 kts 53°
2026-04-23 02:52 23.22152 89.38539 29368 ft 496 kts 53°
2026-04-23 02:52 23.24009 89.41631 28760 ft 495 kts 53°
2026-04-23 02:53 23.25888 89.44762 28160 ft 495 kts 53°
2026-04-23 02:53 23.27659 89.47714 27610 ft 495 kts 53°
2026-04-23 02:53 23.29484 89.50759 27050 ft 494 kts 54°
2026-04-23 02:53 23.31361 89.53892 26473 ft 494 kts 54°
2026-04-23 02:54 23.33233 89.57020 25887 ft 493 kts 54°
2026-04-23 02:54 23.35093 89.60131 25315 ft 491 kts 54°
2026-04-23 02:54 23.36953 89.63247 24729 ft 486 kts 54°
2026-04-23 02:54 23.38743 89.66338 24088 ft 480 kts 56°
2026-04-23 02:55 23.40482 89.69425 23405 ft 474 kts 56°
2026-04-23 02:55 23.42161 89.72439 22622 ft 467 kts 56°
2026-04-23 02:55 23.43847 89.75473 21903 ft 459 kts 56°
2026-04-23 02:55 23.45480 89.78411 21237 ft 450 kts 56°
2026-04-23 02:56 23.47091 89.81304 20613 ft 442 kts 56°
2026-04-23 02:56 23.48668 89.84132 19985 ft 435 kts 56°
2026-04-23 02:56 23.50232 89.86932 19370 ft 428 kts 56°
2026-04-23 02:56 23.51764 89.89676 18768 ft 421 kts 57°
2026-04-23 02:57 23.53274 89.92382 18166 ft 415 kts 57°
2026-04-23 02:57 23.54765 89.95055 17506 ft 409 kts 56°
2026-04-23 02:57 23.56232 89.97688 16887 ft 405 kts 56°
2026-04-23 02:57 23.57686 90.00297 16300 ft 401 kts 56°
2026-04-23 02:58 23.59114 90.02864 15723 ft 391 kts 56°
2026-04-23 02:58 23.60531 90.05346 15174 ft 381 kts 54°
2026-04-23 02:58 23.61947 90.07723 14644 ft 367 kts 53°
2026-04-23 02:58 23.63335 90.10010 14135 ft 355 kts 52°
2026-04-23 02:59 23.64677 90.12210 13647 ft 343 kts 52°
2026-04-23 02:59 23.65971 90.14331 13128 ft 326 kts 52°
2026-04-23 02:59 23.67214 90.16368 12670 ft 314 kts 52°
2026-04-23 02:59 23.68383 90.18291 12201 ft 300 kts 52°
2026-04-23 03:00 23.69537 90.20182 11786 ft 298 kts 52°
2026-04-23 03:00 23.70680 90.22053 11381 ft 297 kts 52°
2026-04-23 03:00 23.71828 90.23934 11019 ft 296 kts 52°
2026-04-23 03:00 23.72964 90.25798 10796 ft 296 kts 52°
2026-04-23 03:01 23.74100 90.27665 10685 ft 296 kts 51°
2026-04-23 03:01 23.75243 90.29545 10597 ft 296 kts 52°
2026-04-23 03:01 23.76102 90.31591 10479 ft 303 kts 74°
2026-04-23 03:01 23.76148 90.33878 10392 ft 298 kts 99°
2026-04-23 03:02 23.75462 90.35910 10309 ft 280 kts 115°
2026-04-23 03:02 23.74476 90.37719 10234 ft 276 kts 131°
2026-04-23 03:02 23.73123 90.39171 10198 ft 275 kts 139°
2026-04-23 03:02 23.71694 90.40548 10165 ft 275 kts 140°
2026-04-23 03:03 23.70254 90.41929 9997 ft 275 kts 140°
2026-04-23 03:03 23.68820 90.43309 9702 ft 275 kts 140°
2026-04-23 03:03 23.67395 90.44682 9331 ft 272 kts 140°
2026-04-23 03:03 23.66015 90.46019 8959 ft 269 kts 140°
2026-04-23 03:04 23.64599 90.47397 8585 ft 266 kts 140°
2026-04-23 03:04 23.63230 90.48734 8216 ft 263 kts 140°
2026-04-23 03:04 23.61882 90.50057 7813 ft 260 kts 140°
2026-04-23 03:04 23.60545 90.51379 7382 ft 256 kts 140°
2026-04-23 03:05 23.59237 90.52681 6969 ft 254 kts 140°
2026-04-23 03:05 23.57948 90.53974 6547 ft 250 kts 140°
2026-04-23 03:05 23.56686 90.55249 6126 ft 246 kts 140°
2026-04-23 03:05 23.55448 90.56518 5887 ft 244 kts 135°
2026-04-23 03:06 23.54622 90.58125 5606 ft 246 kts 104°
2026-04-23 03:06 23.54663 90.59960 5429 ft 245 kts 72°
2026-04-23 03:06 23.55562 90.61502 5432 ft 242 kts 40°
2026-04-23 03:06 23.56981 90.62303 5403 ft 222 kts
2026-04-23 03:07 23.58410 90.62162 5313 ft 200 kts 331°
2026-04-23 03:07 23.59477 90.61260 5355 ft 195 kts 312°
2026-04-23 03:07 23.60468 90.60212 5419 ft 196 kts 313°
2026-04-23 03:07 23.61447 90.59193 5385 ft 197 kts 313°
2026-04-23 03:08 23.62443 90.58155 5036 ft 198 kts 313°
2026-04-23 03:08 23.63435 90.57122 4690 ft 197 kts 313°
2026-04-23 03:08 23.64426 90.56088 4350 ft 194 kts 313°
2026-04-23 03:08 23.65384 90.55093 3936 ft 187 kts 314°
2026-04-23 03:09 23.66318 90.54153 3572 ft 180 kts 318°
2026-04-23 03:09 23.67294 90.53325 3227 ft 176 kts 321°
2026-04-23 03:09 23.68284 90.52527 2857 ft 177 kts 321°
2026-04-23 03:09 23.69275 90.51729 2506 ft 177 kts 322°
2026-04-23 03:10 23.70250 90.50947 2241 ft 175 kts 322°
2026-04-23 03:10 23.71234 90.50164 2000 ft 174 kts 321°
2026-04-23 03:10 23.72188 90.49402 1932 ft 172 kts 321°
2026-04-23 03:10 23.73165 90.48624 1948 ft 175 kts 321°
2026-04-23 03:11 23.74141 90.47849 1920 ft 173 kts 322°
2026-04-23 03:11 23.75119 90.47076 1912 ft 174 kts 322°
2026-04-23 03:11 23.76096 90.46300 1680 ft 174 kts 322°
2026-04-23 03:11 23.77069 90.45529 1455 ft 173 kts 322°
2026-04-23 03:12 23.78040 90.44763 1258 ft 172 kts 323°
2026-04-23 03:12 23.78999 90.43995 990 ft 171 kts 322°
2026-04-23 03:12 23.79968 90.43233 847 ft 171 kts 323°
2026-04-23 03:12 23.80926 90.42473 584 ft 170 kts 323°
2026-04-23 03:13 23.81875 90.41714 359 ft 170 kts 323°
2026-04-23 03:13 23.82823 90.40966 153 ft 166 kts 324°
2026-04-23 03:13 23.83749 90.40237 47 ft 157 kts 323°
2026-04-23 03:13 23.84481 90.39662 43 ft 109 kts 324°
2026-04-23 03:14 23.84941 90.39301 43 ft 50 kts 324°
2026-04-23 03:14 23.85133 90.39151 43 ft 30 kts 324°
2026-04-23 03:14 23.85295 90.39025 42 ft 27 kts 324°
2026-04-23 03:14 23.85429 90.38920 43 ft 16 kts 324°
2026-04-23 03:15 23.85521 90.38910 42 ft 12 kts 27°
2026-04-23 03:15 23.85573 90.38970 43 ft 10 kts 52°
2026-04-23 03:15 23.85610 90.39022 43 ft 8 kts 54°
2026-04-23 03:15 23.85637 90.39063 43 ft 6 kts 54°
2026-04-23 03:16 23.85657 90.39094 43 ft 5 kts 54°
2026-04-23 03:16 23.85691 90.39144 43 ft 11 kts 52°
2026-04-23 03:16 23.85705 90.39350 42 ft 19 kts 132°
2026-04-23 03:17 23.85616 90.39427 42 ft 17 kts 143°
2026-04-23 03:17 23.85517 90.39506 43 ft 19 kts 143°
2026-04-23 03:17 23.85407 90.39595 43 ft 20 kts 143°
2026-04-23 03:17 23.85287 90.39689 43 ft 22 kts 144°
2026-04-23 03:18 23.85177 90.39775 43 ft 12 kts 144°
2026-04-23 03:18 23.85102 90.39836 43 ft 15 kts 144°
2026-04-23 03:18 23.85017 90.39902 43 ft 17 kts 144°
2026-04-23 03:18 23.84915 90.39984 43 ft 19 kts 144°
2026-04-23 03:19 23.84804 90.40072 43 ft 21 kts 144°
2026-04-23 03:19 23.84698 90.40157 43 ft 13 kts 144°
2026-04-23 03:19 23.84653 90.40210 43 ft 7 kts 107°
2026-04-23 03:19 23.84657 90.40246 43 ft 1 kts 70°
2026-04-23 03:20 23.84664 90.40261 42 ft 4 kts 61°
2026-04-23 03:20 23.84690 90.40289 43 ft 6 kts 36°
2026-04-23 03:20 23.84740 90.40301 43 ft 9 kts 358°
2026-04-23 03:20 23.84802 90.40270 43 ft 11 kts 326°
2026-04-23 03:21 23.84845 90.40251 43 ft 5 kts
2026-04-23 03:21 23.84877 90.40272 43 ft 6 kts 38°
2026-04-23 03:21 23.84886 90.40282 41 ft 0 kts 44°